Location: Sternwarte auf dem Internationalen Platz Vogelsang IP
(50.5721°N, 6.4398°E)
Time: 21:38:56
(UTC+01:00)

BlueWalker 3 - Visible Passes

Search period start: 10 November 2025 00:00
Search period end: 20 November 2025 00:00
Orbit: 456 x 464 km, 53.2° (Epoch: 08 November)

Date Brightness Start Highest point End Pass type
(mag) Time Alt. Az. Time Alt. Az. Time Alt. Az.
10 Nov 4.1 05:22:32 14° S 05:22:32 14° S 05:23:23 10° SSE visible
18 Nov 4.4 19:15:20 10° SSW 19:15:49 13° S 19:15:49 13° S visible
19 Nov 3.7 18:41:12 10° S 18:43:01 18° SSE 18:43:01 18° SSE visible
